| time (UTC) | temp F | wind direction | speed MPH | gust MPH | rain 1hr in | rain 24hr in | rain mn in | humidity % | barometer mb |
| 20260507051329 | 42 | 286 | 1.0 | 2.0 | 0.00 | 0.00 | 0.00 | 72 | 1014.4 |
| 20260507050849 | 42 | 286 | 0.0 | 2.0 | 0.00 | 0.00 | 0.00 | 74 | 1014.3 |
| 20260507050329 | 41 | 287 | 1.0 | 2.0 | 0.00 | 0.00 | 0.00 | 76 | 1014.3 |
| 20260507045835 | 41 | 287 | 0.0 | 0.0 | 0.00 | 0.00 | 0.00 | 78 | 1014.2 |
| 20260507045325 | 40 | 287 | 0.0 | 1.0 | 0.00 | 0.00 | 0.00 | 79 | 1014.3 |
| 20260507044826 | 40 | 287 | 0.0 | 1.0 | 0.00 | 0.00 | 0.00 | 82 | 1014.3 |
| 20260507044326 | 40 | 287 | 0.0 | 2.0 | 0.00 | 0.00 | 0.00 | 80 | 1014.3 |
| 20260507043826 | 39 | 287 | 1.0 | 2.0 | 0.00 | 0.00 | 0.00 | 79 | 1014.2 |
| 20260507043327 | 39 | 287 | 0.0 | 2.0 | 0.00 | 0.00 | 0.00 | 78 | 1014.2 |
| 20260507042835 | 39 | 287 | 1.0 | 2.0 | 0.00 | 0.00 | 0.00 | 80 | 1014.2 |
| 20260507042325 | 39 | 287 | 0.0 | 1.0 | 0.00 | 0.00 | 0.00 | 80 | 1014.1 |
| 20260507041825 | 38 | 287 | 0.0 | 2.0 | 0.00 | 0.00 | 0.00 | 82 | 1014.0 |
| 20260507041331 | 38 | 287 | 0.0 | 2.0 | 0.00 | 0.00 | 0.00 | 82 | 1014.1 |
| 20260507040840 | 37 | 160 | 1.0 | 2.0 | 0.00 | 0.00 | 0.00 | 82 | 1014.0 |
| 20260507040328 | 37 | 160 | 1.0 | 2.0 | 0.00 | 0.00 | 0.00 | 80 | 1013.9 |
| 20260507035836 | 37 | 160 | 0.0 | 0.0 | 0.00 | 0.00 | 0.00 | 82 | 1013.9 |
| 20260507035324 | 37 | 160 | 0.0 | 0.0 | 0.00 | 0.00 | 0.00 | 80 | 1013.8 |
| 20260507034824 | 36 | 160 | 0.0 | 0.0 | 0.00 | 0.00 | 0.00 | 80 | 1013.7 |
| 20260507034346 | 36 | 160 | 0.0 | 0.0 | 0.00 | 0.00 | 0.00 | 80 | 1013.8 |
| 20260507033826 | 36 | 160 | 0.0 | 0.0 | 0.00 | 0.00 | 0.00 | 81 | 1013.7 |
| 20260507033325 | 36 | 160 | 0.0 | 0.0 | 0.00 | 0.00 | 0.00 | 81 | 1013.8 |
| 20260507032826 | 36 | 160 | 0.0 | 0.0 | 0.00 | 0.00 | 0.00 | 82 | 1013.7 |
| 20260507032335 | 36 | 160 | 0.0 | 0.0 | 0.00 | 0.00 | 0.00 | 80 | 1013.8 |
| 20260507031825 | 36 | 160 | 0.0 | 0.0 | 0.00 | 0.00 | 0.00 | 80 | 1013.8 |
| 20260507031346 | 36 | 160 | 0.0 | 0.0 | 0.00 | 0.00 | 0.00 | 78 | 1013.7 |
| 20260507030826 | 37 | 160 | 0.0 | 0.0 | 0.00 | 0.00 | 0.00 | 78 | 1013.8 |
| 20260507030335 | 37 | 160 | 0.0 | 0.0 | 0.00 | 0.00 | 0.00 | 77 | 1013.8 |
| 20260507025824 | 37 | 160 | 0.0 | 0.0 | 0.00 | 0.00 | 0.00 | 78 | 1013.8 |
| 20260507025326 | 37 | 160 | 0.0 | 0.0 | 0.00 | 0.00 | 0.00 | 77 | 1013.8 |
| 20260507024827 | 37 | 160 | 0.0 | 0.0 | 0.00 | 0.00 | 0.00 | 76 | 1013.8 |
| 20260507024328 | 38 | 160 | 0.0 | 0.0 | 0.00 | 0.00 | 0.00 | 75 | 1013.8 |
| 20260507023849 | 38 | 160 | 0.0 | 0.0 | 0.00 | 0.00 | 0.00 | 74 | 1013.8 |
| 20260507023349 | 38 | 160 | 0.0 | 0.0 | 0.00 | 0.00 | 0.00 | 72 | 1013.8 |
| 20260507022828 | 38 | 160 | 0.0 | 3.0 | 0.00 | 0.00 | 0.00 | 72 | 1013.8 |
| 20260507022349 | 38 | 160 | 1.0 | 5.0 | 0.00 | 0.00 | 0.00 | 71 | 1013.8 |
| 20260507021829 | 38 | 180 | 2.0 | 6.0 | 0.00 | 0.00 | 0.00 | 69 | 1013.7 |
| 20260507021350 | 38 | 195 | 1.0 | 6.0 | 0.00 | 0.00 | 0.00 | 69 | 1013.7 |
| 20260507020830 | 38 | 196 | 0.0 | 2.0 | 0.00 | 0.00 | 0.00 | 71 | 1013.7 |
| 20260507020331 | 39 | 196 | 1.0 | 2.0 | 0.00 | 0.00 | 0.00 | 71 | 1013.7 |
| 20260507015831 | 39 | 196 | 1.0 | 2.0 | 0.00 | 0.00 | 0.00 | 69 | 1013.7 |
| 20260507015352 | 39 | 196 | 0.0 | 1.0 | 0.00 | 0.00 | 0.00 | 68 | 1013.7 |
| 20260507014831 | 40 | 196 | 0.0 | 1.0 | 0.00 | 0.00 | 0.00 | 66 | 1013.6 |
| 20260507014329 | 40 | 196 | 1.0 | 2.0 | 0.00 | 0.00 | 0.00 | 64 | 1013.6 |
| 20260507013839 | 40 | 196 | 0.0 | 2.0 | 0.00 | 0.00 | 0.00 | 63 | 1013.7 |
| 20260507013328 | 41 | 196 | 0.0 | 3.0 | 0.00 | 0.00 | 0.00 | 62 | 1013.6 |
| 20260507012829 | 41 | 259 | 1.0 | 5.0 | 0.00 | 0.00 | 0.00 | 62 | 1013.5 |
| 20260507012330 | 41 | 200 | 1.0 | 9.0 | 0.00 | 0.00 | 0.00 | 61 | 1013.5 |
| 20260507011830 | 41 | 176 | 3.0 | 9.0 | 0.00 | 0.00 | 0.00 | 61 | 1013.3 |
| 20260507011331 | 41 | 125 | 3.0 | 9.0 | 0.00 | 0.00 | 0.00 | 61 | 1013.3 |
| 20260507010832 | 41 | 186 | 4.0 | 14.0 | 0.00 | 0.00 | 0.00 | 61 | 1013.3 |
| 20260507010330 | 41 | 192 | 3.0 | 14.0 | 0.00 | 0.00 | 0.00 | 60 | 1013.3 |
| 20260507005850 | 41 | 210 | 5.0 | 11.0 | 0.00 | 0.00 | 0.00 | 60 | 1013.3 |
| 20260507005350 | 41 | 182 | 4.0 | 9.0 | 0.00 | 0.00 | 0.00 | 60 | 1013.3 |
| 20260507004830 | 41 | 148 | 4.0 | 10.0 | 0.00 | 0.00 | 0.00 | 60 | 1013.2 |
| 20260507004350 | 42 | 156 | 5.0 | 10.0 | 0.00 | 0.00 | 0.00 | 60 | 1013.2 |
| 20260507003825 | 42 | 184 | 4.0 | 9.0 | 0.00 | 0.00 | 0.00 | 59 | 1013.3 |
| 20260507003325 | 42 | 175 | 4.0 | 11.0 | 0.00 | 0.00 | 0.00 | 59 | 1013.3 |
| 20260507002853 | 42 | 188 | 5.0 | 11.0 | 0.00 | 0.00 | 0.00 | 59 | 1013.3 |
| 20260507002341 | 42 | 184 | 5.0 | 9.0 | 0.00 | 0.00 | 0.00 | 58 | 1013.3 |
| 20260507001829 | 42 | 142 | 4.0 | 11.0 | 0.00 | 0.00 | 0.00 | 58 | 1013.2 |
| 20260507001329 | 42 | 216 | 5.0 | 10.0 | 0.00 | 0.00 | 0.00 | 58 | 1013.3 |
| 20260507000849 | 42 | 169 | 4.0 | 11.0 | 0.00 | 0.00 | 0.00 | 58 | 1013.3 |
| 20260507000328 | 42 | 198 | 4.0 | 11.0 | 0.00 | 0.00 | 0.00 | 58 | 1013.2 |
| 20260506235829 | 42 | 220 | 3.0 | 11.0 | 0.00 | 0.00 | 0.00 | 58 | 1013.3 |
| 20260506235328 | 42 | 167 | 3.0 | 13.0 | 0.00 | 0.00 | 0.00 | 59 | 1013.2 |
| 20260506234829 | 42 | 149 | 5.0 | 10.0 | 0.00 | 0.00 | 0.00 | 59 | 1013.2 |
| 20260506234337 | 42 | 154 | 5.0 | 8.0 | 0.00 | 0.00 | 0.00 | 58 | 1013.2 |
| 20260506233825 | 42 | 180 | 4.0 | 8.0 | 0.00 | 0.00 | 0.00 | 58 | 1013.3 |
| 20260506233335 | 42 | 217 | 4.0 | 10.0 | 0.00 | 0.00 | 0.00 | 58 | 1013.3 |
| 20260506232824 | 42 | 186 | 5.0 | 11.0 | 0.00 | 0.00 | 0.00 | 58 | 1013.3 |
| 20260506232330 | 42 | 188 | 5.0 | 11.0 | 0.00 | 0.00 | 0.00 | 58 | 1013.3 |
| 20260506231831 | 42 | 194 | 4.0 | 8.0 | 0.00 | 0.00 | 0.00 | 59 | 1013.3 |
| 20260506231330 | 42 | 154 | 5.0 | 10.0 | 0.00 | 0.00 | 0.00 | 59 | 1013.2 |
| 20260506230830 | 42 | 171 | 6.0 | 10.0 | 0.00 | 0.00 | 0.00 | 58 | 1013.2 |
| 20260506230330 | 42 | 155 | 7.0 | 14.0 | 0.00 | 0.00 | 0.00 | 58 | 1013.2 |
| 20260506225830 | 42 | 155 | 6.0 | 14.0 | 0.00 | 0.00 | 0.00 | 58 | 1013.3 |
| 20260506225352 | 42 | 177 | 5.0 | 11.0 | 0.00 | 0.00 | 0.00 | 58 | 1013.2 |
| 20260506224851 | 42 | 187 | 5.0 | 10.0 | 0.00 | 0.00 | 0.00 | 58 | 1013.2 |
| 20260506224350 | 43 | 166 | 5.0 | 11.0 | 0.00 | 0.00 | 0.00 | 57 | 1013.2 |
| 20260506223830 | 43 | 159 | 5.0 | 11.0 | 0.00 | 0.00 | 0.00 | 56 | 1013.2 |
| 20260506223339 | 43 | 191 | 5.0 | 17.0 | 0.00 | 0.00 | 0.00 | 56 | 1013.1 |
| 20260506222828 | 43 | 184 | 4.0 | 17.0 | 0.00 | 0.00 | 0.00 | 56 | 1013.1 |
| 20260506222329 | 43 | 125 | 5.0 | 11.0 | 0.00 | 0.00 | 0.00 | 56 | 1013.1 |
| 20260506221829 | 43 | 200 | 5.0 | 10.0 | 0.00 | 0.00 | 0.00 | 55 | 1013.1 |
| 20260506221328 | 43 | 188 | 4.0 | 12.0 | 0.00 | 0.00 | 0.00 | 55 | 1013.1 |
| 20260506220837 | 43 | 147 | 5.0 | 12.0 | 0.00 | 0.00 | 0.00 | 55 | 1013.1 |
| 20260506220325 | 43 | 161 | 5.0 | 10.0 | 0.00 | 0.00 | 0.00 | 54 | 1013.1 |
| 20260506215853 | 44 | 180 | 4.0 | 12.0 | 0.00 | 0.00 | 0.00 | 54 | 1013.0 |
| 20260506215333 | 44 | 188 | 4.0 | 10.0 | 0.00 | 0.00 | 0.00 | 53 | 1013.0 |
| 20260506214901 | 44 | 171 | 6.0 | 12.0 | 0.00 | 0.00 | 0.00 | 53 | 1013.0 |
| 20260506214328 | 44 | 195 | 6.0 | 12.0 | 0.00 | 0.00 | 0.00 | 52 | 1013.0 |
| 20260506213857 | 44 | 149 | 5.0 | 10.0 | 0.00 | 0.00 | 0.00 | 53 | 1012.9 |
| 20260506213325 | 44 | 204 | 6.0 | 10.0 | 0.00 | 0.00 | 0.00 | 52 | 1012.9 |
| 20260506212853 | 44 | 130 | 5.0 | 8.0 | 0.00 | 0.00 | 0.00 | 51 | 1012.9 |
| 20260506212353 | 44 | 190 | 5.0 | 12.0 | 0.00 | 0.00 | 0.00 | 51 | 1012.9 |
| 20260506211852 | 45 | 172 | 5.0 | 12.0 | 0.00 | 0.00 | 0.00 | 50 | 1012.8 |
| 20260506211332 | 45 | 176 | 5.0 | 10.0 | 0.00 | 0.00 | 0.00 | 50 | 1012.8 |
| 20260506210827 | 45 | 160 | 6.0 | 10.0 | 0.00 | 0.00 | 0.00 | 50 | 1012.7 |
| 20260506210336 | 45 | 199 | 4.0 | 10.0 | 0.00 | 0.00 | 0.00 | 50 | 1012.7 |
| 20260506205829 | 45 | 173 | 4.0 | 10.0 | 0.00 | 0.00 | 0.00 | 49 | 1012.7 |
| 20260506205330 | 45 | 182 | 5.0 | 10.0 | 0.00 | 0.00 | 0.00 | 49 | 1012.8 |
| 20260506204831 | 45 | 153 | 4.0 | 11.0 | 0.00 | 0.00 | 0.00 | 50 | 1012.8 |
| 20260506204327 | 45 | 150 | 5.0 | 14.0 | 0.00 | 0.00 | 0.00 | 49 | 1012.7 |
| 20260506203856 | 45 | 211 | 4.0 | 14.0 | 0.00 | 0.00 | 0.00 | 48 | 1012.7 |
| 20260506203343 | 46 | 172 | 4.0 | 10.0 | 0.00 | 0.00 | 0.00 | 49 | 1012.6 |
| 20260506202832 | 46 | 198 | 4.0 | 13.0 | 0.00 | 0.00 | 0.00 | 48 | 1012.7 |
| 20260506202324 | 46 | 186 | 4.0 | 14.0 | 0.00 | 0.00 | 0.00 | 47 | 1012.6 |
| 20260506201849 | 46 | 176 | 5.0 | 9.0 | 0.00 | 0.00 | 0.00 | 47 | 1012.6 |
| 20260506201335 | 46 | 171 | 4.0 | 8.0 | 0.00 | 0.00 | 0.00 | 47 | 1012.6 |
| 20260506200828 | 46 | 175 | 4.0 | 9.0 | 0.00 | 0.00 | 0.00 | 46 | 1012.6 |
| 20260506200329 | 46 | 164 | 4.0 | 10.0 | 0.00 | 0.00 | 0.00 | 46 | 1012.6 |
| 20260506195829 | 47 | 160 | 5.0 | 10.0 | 0.00 | 0.00 | 0.00 | 46 | 1012.5 |
| 20260506195326 | 47 | 183 | 4.0 | 11.0 | 0.00 | 0.00 | 0.00 | 46 | 1012.4 |
| 20260506194825 | 47 | 183 | 4.0 | 11.0 | 0.00 | 0.00 | 0.00 | 45 | 1012.5 |
| 20260506194326 | 47 | 157 | 4.0 | 9.0 | 0.00 | 0.00 | 0.00 | 45 | 1012.5 |
| 20260506193827 | 48 | 159 | 4.0 | 10.0 | 0.00 | 0.00 | 0.00 | 45 | 1012.5 |
| 20260506193336 | 48 | 163 | 4.0 | 10.0 | 0.00 | 0.00 | 0.00 | 44 | 1012.5 |
| 20260506192828 | 48 | 195 | 6.0 | 9.0 | 0.00 | 0.00 | 0.00 | 44 | 1012.5 |
| 20260506192345 | 48 | 140 | 4.0 | 10.0 | 0.00 | 0.00 | 0.00 | 44 | 1012.5 |
| 20260506191825 | 48 | 184 | 4.0 | 11.0 | 0.00 | 0.00 | 0.00 | 43 | 1012.4 |
| 20260506191326 | 49 | 167 | 4.0 | 11.0 | 0.00 | 0.00 | 0.00 | 43 | 1012.4 |
| 20260506190835 | 49 | 152 | 4.0 | 9.0 | 0.00 | 0.00 | 0.00 | 42 | 1012.4 |
| 20260506190329 | 49 | 148 | 5.0 | 9.0 | 0.00 | 0.00 | 0.00 | 41 | 1012.5 |
| 20260506185830 | 49 | 183 | 4.0 | 10.0 | 0.00 | 0.00 | 0.00 | 40 | 1012.4 |
| 20260506185347 | 50 | 184 | 4.0 | 10.0 | 0.00 | 0.00 | 0.00 | 40 | 1012.3 |
| 20260506184826 | 50 | 172 | 2.0 | 13.0 | 0.00 | 0.00 | 0.00 | 39 | 1012.3 |
| 20260506184326 | 50 | 172 | 4.0 | 13.0 | 0.00 | 0.00 | 0.00 | 38 | 1012.2 |
| 20260506183847 | 50 | 156 | 5.0 | 10.0 | 0.00 | 0.00 | 0.00 | 37 | 1012.2 |
| 20260506183327 | 51 | 156 | 5.0 | 11.0 | 0.00 | 0.00 | 0.00 | 36 | 1012.1 |
| 20260506182835 | 51 | 150 | 6.0 | 11.0 | 0.00 | 0.00 | 0.00 | 36 | 1012.1 |
| 20260506182324 | 51 | 198 | 6.0 | 14.0 | 0.00 | 0.00 | 0.00 | 37 | 1012.1 |
| 20260506181824 | 51 | 140 | 7.0 | 14.0 | 0.00 | 0.00 | 0.00 | 37 | 1012.0 |
| 20260506181324 | 51 | 160 | 6.0 | 10.0 | 0.00 | 0.00 | 0.00 | 36 | 1012.0 |
| 20260506180826 | 51 | 171 | 6.0 | 10.0 | 0.00 | 0.00 | 0.00 | 36 | 1012.0 |
| 20260506180327 | 52 | 152 | 5.0 | 12.0 | 0.00 | 0.00 | 0.00 | 36 | 1012.0 |
| 20260506175827 | 52 | 145 | 6.0 | 12.0 | 0.00 | 0.00 | 0.00 | 36 | 1012.0 |
| 20260506175348 | 52 | 143 | 6.0 | 10.0 | 0.00 | 0.00 | 0.00 | 37 | 1011.9 |
| 20260506174847 | 53 | 102 | 6.0 | 10.0 | 0.00 | 0.00 | 0.00 | 35 | 1011.8 |
| 20260506174327 | 53 | 122 | 5.0 | 11.0 | 0.00 | 0.00 | 0.00 | 34 | 1011.8 |
| 20260506173828 | 53 | 199 | 6.0 | 15.0 | 0.00 | 0.00 | 0.00 | 33 | 1011.7 |
| 20260506173328 | 54 | 196 | 6.0 | 17.0 | 0.00 | 0.00 | 0.00 | 33 | 1011.7 |
| 20260506172829 | 54 | 169 | 7.0 | 18.0 | 0.00 | 0.00 | 0.00 | 32 | 1011.7 |
| 20260506172357 | 54 | 168 | 9.0 | 16.0 | 0.00 | 0.00 | 0.00 | 33 | 1011.6 |
| 20260506171825 | 54 | 154 | 8.0 | 16.0 | 0.00 | 0.00 | 0.00 | 32 | 1011.6 |
| 20260506171326 | 55 | 155 | 4.0 | 15.0 | 0.00 | 0.00 | 0.00 | 34 | 1011.5 |
| 20260506170827 | 55 | 126 | 8.0 | 20.0 | 0.00 | 0.00 | 0.00 | 32 | 1011.5 |
| 20260506170326 | 55 | 173 | 9.0 | 20.0 | 0.00 | 0.00 | 0.00 | 34 | 1011.7 |
| 20260506165826 | 55 | 122 | 5.0 | 10.0 | 0.00 | 0.00 | 0.00 | 34 | 1011.4 |
| 20260506165327 | 56 | 137 | 5.0 | 11.0 | 0.00 | 0.00 | 0.00 | 35 | 1011.4 |
| 20260506164836 | 56 | 136 | 6.0 | 11.0 | 0.00 | 0.00 | 0.00 | 34 | 1011.3 |
| 20260506164324 | 56 | 149 | 7.0 | 11.0 | 0.00 | 0.00 | 0.00 | 34 | 1011.3 |
| 20260506163825 | 56 | 192 | 6.0 | 15.0 | 0.00 | 0.00 | 0.00 | 35 | 1011.3 |
| 20260506163326 | 56 | 153 | 7.0 | 15.0 | 0.00 | 0.00 | 0.00 | 34 | 1011.3 |
| 20260506162826 | 56 | 121 | 5.0 | 11.0 | 0.00 | 0.00 | 0.00 | 36 | 1011.2 |
| 20260506162336 | 57 | 133 | 6.0 | 9.0 | 0.00 | 0.00 | 0.00 | 36 | 1011.3 |
| 20260506161825 | 56 | 133 | 3.0 | 7.0 | 0.00 | 0.00 | 0.00 | 32 | 1011.3 |
| 20260506161326 | 56 | 75 | 4.0 | 8.0 | 0.00 | 0.00 | 0.00 | 36 | 1011.2 |
| 20260506160826 | 56 | 63 | 4.0 | 8.0 | 0.00 | 0.00 | 0.00 | 36 | 1011.2 |
| 20260506160327 | 56 | 118 | 4.0 | 7.0 | 0.00 | 0.00 | 0.00 | 35 | 1011.3 |
| 20260506155827 | 56 | 88 | 2.0 | 8.0 | 0.00 | 0.00 | 0.00 | 35 | 1011.3 |
| 20260506155327 | 56 | 112 | 4.0 | 10.0 | 0.00 | 0.00 | 0.00 | 33 | 1011.4 |
| 20260506154828 | 56 | 93 | 6.0 | 8.0 | 0.00 | 0.00 | 0.00 | 32 | 1011.4 |
| 20260506154348 | 57 | 169 | 2.0 | 8.0 | 0.00 | 0.00 | 0.00 | 29 | 1011.5 |
| 20260506153857 | 58 | 138 | 2.0 | 8.0 | 0.00 | 0.00 | 0.00 | 32 | 1011.5 |
| 20260506153325 | 58 | 36 | 2.0 | 7.0 | 0.00 | 0.00 | 0.00 | 28 | 1011.4 |
| 20260506152825 | 58 | 90 | 3.0 | 6.0 | 0.00 | 0.00 | 0.00 | 35 | 1011.5 |
| 20260506152326 | 57 | 16 | 2.0 | 4.0 | 0.00 | 0.00 | 0.00 | 29 | 1011.6 |
| 20260506151826 | 57 | 142 | 2.0 | 4.0 | 0.00 | 0.00 | 0.00 | 31 | 1011.6 |
| 20260506151327 | 57 | 177 | 2.0 | 5.0 | 0.00 | 0.00 | 0.00 | 28 | 1011.5 |
| 20260506150828 | 57 | 222 | 1.0 | 10.0 | 0.00 | 0.00 | 0.00 | 27 | 1011.5 |
| 20260506150329 | 58 | 112 | 4.0 | 10.0 | 0.00 | 0.00 | 0.00 | 29 | 1011.6 |
| 20260506145829 | 58 | 252 | 2.0 | 8.0 | 0.00 | 0.00 | 0.00 | 28 | 1011.5 |
| 20260506145330 | 58 | 179 | 3.0 | 10.0 | 0.00 | 0.00 | 0.00 | 28 | 1011.6 |
| 20260506144830 | 58 | 160 | 5.0 | 10.0 | 0.00 | 0.00 | 0.00 | 28 | 1011.7 |
| 20260506144330 | 58 | 178 | 5.0 | 8.0 | 0.00 | 0.00 | 0.00 | 28 | 1011.6 |
| 20260506143831 | 58 | 169 | 1.0 | 6.0 | 0.00 | 0.00 | 0.00 | 29 | 1011.6 |
| 20260506143352 | 58 | 193 | 2.0 | 5.0 | 0.00 | 0.00 | 0.00 | 27 | 1011.6 |
| 20260506142831 | 58 | 147 | 1.0 | 12.0 | 0.00 | 0.00 | 0.00 | 28 | 1011.7 |
| 20260506142352 | 58 | 90 | 3.0 | 16.0 | 0.00 | 0.00 | 0.00 | 32 | 1011.9 |
| 20260506141852 | 58 | 114 | 2.0 | 10.0 | 0.00 | 0.00 | 0.00 | 28 | 1011.7 |
| 20260506141331 | 58 | 172 | 5.0 | 9.0 | 0.00 | 0.00 | 0.00 | 28 | 1011.8 |
| 20260506140839 | 58 | 113 | 4.0 | 11.0 | 0.00 | 0.00 | 0.00 | 32 | 1011.8 |
| 20260506140328 | 58 | 165 | 5.0 | 11.0 | 0.00 | 0.00 | 0.00 | 30 | 1011.8 |
| 20260506135836 | 58 | 55 | 4.0 | 11.0 | 0.00 | 0.00 | 0.00 | 31 | 1011.9 |
| 20260506135324 | 58 | 126 | 6.0 | 13.0 | 0.00 | 0.00 | 0.00 | 31 | 1011.8 |
| 20260506134832 | 58 | 137 | 8.0 | 13.0 | 0.00 | 0.00 | 0.00 | 31 | 1011.9 |
| 20260506134339 | 58 | 77 | 6.0 | 12.0 | 0.00 | 0.00 | 0.00 | 36 | 1012.0 |
| 20260506133828 | 57 | 72 | 7.0 | 12.0 | 0.00 | 0.00 | 0.00 | 32 | 1012.0 |
| 20260506133329 | 58 | 126 | 7.0 | 16.0 | 0.00 | 0.00 | 0.00 | 31 | 1012.1 |
| 20260506132830 | 58 | 118 | 9.0 | 16.0 | 0.00 | 0.00 | 0.00 | 30 | 1012.0 |
| 20260506132330 | 58 | 92 | 5.0 | 12.0 | 0.00 | 0.00 | 0.00 | 30 | 1012.0 |
| 20260506131851 | 58 | 103 | 4.0 | 12.0 | 0.00 | 0.00 | 0.00 | 31 | 1012.1 |
| 20260506131350 | 58 | 115 | 7.0 | 12.0 | 0.00 | 0.00 | 0.00 | 30 | 1012.1 |
| 20260506130829 | 58 | 110 | 7.0 | 13.0 | 0.00 | 0.00 | 0.00 | 32 | 1012.2 |
| 20260506130329 | 58 | 114 | 10.0 | 13.0 | 0.00 | 0.00 | 0.00 | 31 | 1012.2 |
| 20260506125829 | 58 | 133 | 4.0 | 13.0 | 0.00 | 0.00 | 0.00 | 32 | 1012.3 |
| 20260506125331 | 58 | 107 | 8.0 | 12.0 | 0.00 | 0.00 | 0.00 | 31 | 1012.3 |
| 20260506124830 | 58 | 109 | 5.0 | 12.0 | 0.00 | 0.00 | 0.00 | 33 | 1012.3 |
| 20260506124326 | 58 | 126 | 8.0 | 13.0 | 0.00 | 0.00 | 0.00 | 30 | 1012.4 |
| 20260506123826 | 58 | 119 | 4.0 | 13.0 | 0.00 | 0.00 | 0.00 | 29 | 1012.4 |
| 20260506123327 | 58 | 63 | 6.0 | 13.0 | 0.00 | 0.00 | 0.00 | 31 | 1012.4 |
| 20260506122827 | 58 | 113 | 5.0 | 10.0 | 0.00 | 0.00 | 0.00 | 31 | 1012.5 |
| 20260506122348 | 58 | 360 | 4.0 | 7.0 | 0.00 | 0.00 | 0.00 | 29 | 1012.5 |
| 20260506121827 | 57 | 64 | 3.0 | 9.0 | 0.00 | 0.00 | 0.00 | 34 | 1012.5 |
| 20260506121328 | 56 | 111 | 5.0 | 13.0 | 0.00 | 0.00 | 0.00 | 32 | 1012.6 |
| 20260506120828 | 57 | 88 | 6.0 | 13.0 | 0.00 | 0.00 | 0.00 | 32 | 1012.6 |
| 20260506120336 | 57 | 103 | 7.0 | 12.0 | 0.00 | 0.00 | 0.00 | 30 | 1012.6 |
| 20260506115824 | 58 | 142 | 6.0 | 12.0 | 0.00 | 0.00 | 0.00 | 28 | 1012.6 |
| 20260506115325 | 58 | 138 | 8.0 | 12.0 | 0.00 | 0.00 | 0.00 | 33 | 1012.6 |
| 20260506114824 | 58 | 68 | 5.0 | 15.0 | 0.00 | 0.00 | 0.00 | 32 | 1012.7 |
| 20260506114326 | 58 | 144 | 7.0 | 15.0 | 0.00 | 0.00 | 0.00 | 31 | 1012.6 |
| 20260506113847 | 58 | 167 | 6.0 | 10.0 | 0.00 | 0.00 | 0.00 | 32 | 1012.7 |
| 20260506113327 | 58 | 163 | 4.0 | 7.0 | 0.00 | 0.00 | 0.00 | 32 | 1012.7 |
| 20260506112828 | 58 | 145 | 3.0 | 10.0 | 0.00 | 0.00 | 0.00 | 30 | 1012.7 |
| 20260506112329 | 59 | 136 | 7.0 | 10.0 | 0.00 | 0.00 | 0.00 | 30 | 1012.7 |
| 20260506111830 | 60 | 105 | 6.0 | 12.0 | 0.00 | 0.00 | 0.00 | 31 | 1012.7 |
| 20260506111332 | 59 | 90 | 6.0 | 12.0 | 0.00 | 0.00 | 0.00 | 30 | 1012.7 |
| 20260506110851 | 59 | 74 | 3.0 | 9.0 | 0.00 | 0.00 | 0.00 | 31 | 1012.7 |
| 20260506110330 | 58 | 80 | 3.0 | 14.0 | 0.00 | 0.00 | 0.00 | 30 | 1012.9 |
| 20260506105831 | 58 | 64 | 4.0 | 14.0 | 0.00 | 0.00 | 0.00 | 30 | 1012.9 |
| 20260506105352 | 59 | 123 | 4.0 | 12.0 | 0.00 | 0.00 | 0.00 | 31 | 1012.9 |
| 20260506104851 | 58 | 117 | 7.0 | 10.0 | 0.00 | 0.00 | 0.00 | 30 | 1012.9 |
| 20260506104332 | 58 | 49 | 2.0 | 10.0 | 0.00 | 0.00 | 0.00 | 31 | 1012.9 |
| 20260506103832 | 59 | 29 | 3.0 | 11.0 | 0.00 | 0.00 | 0.00 | 28 | 1013.0 |
| 20260506103331 | 61 | 93 | 3.0 | 11.0 | 0.00 | 0.00 | 0.00 | 29 | 1013.1 |
| 20260506102831 | 61 | 140 | 3.0 | 8.0 | 0.00 | 0.00 | 0.00 | 30 | 1013.1 |
| 20260506102400 | 62 | 49 | 2.0 | 6.0 | 0.00 | 0.00 | 0.00 | 27 | 1013.2 |
| 20260506101827 | 61 | 302 | 3.0 | 7.0 | 0.00 | 0.00 | 0.00 | 28 | 1013.2 |
| 20260506101356 | 60 | 69 | 3.0 | 7.0 | 0.00 | 0.00 | 0.00 | 30 | 1013.2 |
| 20260506100845 | 60 | 221 | 1.0 | 5.0 | 0.00 | 0.00 | 0.00 | 25 | 1013.2 |
| 20260506100332 | 59 | 304 | 3.0 | 8.0 | 0.00 | 0.00 | 0.00 | 26 | 1013.2 |
| 20260506095900 | 58 | 276 | 3.0 | 8.0 | 0.00 | 0.00 | 0.00 | 28 | 1013.3 |
| 20260506095328 | 58 | 160 | 4.0 | 8.0 | 0.00 | 0.00 | 0.00 | 28 | 1013.3 |
| 20260506094836 | 58 | 144 | 2.0 | 10.0 | 0.00 | 0.00 | 0.00 | 32 | 1013.3 |
| 20260506094324 | 58 | 205 | 4.0 | 10.0 | 0.00 | 0.00 | 0.00 | 31 | 1013.3 |
| 20260506093852 | 59 | 111 | 6.0 | 10.0 | 0.00 | 0.00 | 0.00 | 27 | 1013.3 |
| 20260506093331 | 59 | 98 | 3.0 | 7.0 | 0.00 | 0.00 | 0.00 | 27 | 1013.3 |
| 20260506092831 | 59 | 331 | 1.0 | 9.0 | 0.00 | 0.00 | 0.00 | 28 | 1013.3 |
| 20260506092330 | 58 | 291 | 2.0 | 9.0 | 0.00 | 0.00 | 0.00 | 29 | 1013.4 |
| 20260506091838 | 57 | 299 | 1.0 | 8.0 | 0.00 | 0.00 | 0.00 | 29 | 1013.4 |
| 20260506091346 | 57 | 302 | 3.0 | 8.0 | 0.00 | 0.00 | 0.00 | 31 | 1013.4 |
| 20260506090850 | 56 | 295 | 4.0 | 8.0 | 0.00 | 0.00 | 0.00 | 34 | 1013.5 |
| 20260506090356 | 56 | 249 | 1.0 | 6.0 | 0.00 | 0.00 | 0.00 | 32 | 1013.5 |
| 20260506085824 | 56 | 268 | 1.0 | 6.0 | 0.00 | 0.00 | 0.00 | 31 | 1013.5 |
| 20260506085324 | 57 | 306 | 2.0 | 6.0 | 0.00 | 0.00 | 0.00 | 29 | 1013.4 |
| 20260506084845 | 57 | 304 | 4.0 | 6.0 | 0.00 | 0.00 | 0.00 | 28 | 1013.4 |
| 20260506084324 | 57 | 118 | 3.0 | 9.0 | 0.00 | 0.00 | 0.00 | 36 | 1013.5 |
| 20260506083825 | 57 | 141 | 5.0 | 9.0 | 0.00 | 0.00 | 0.00 | 32 | 1013.5 |
| 20260506083346 | 58 | 152 | 2.0 | 8.0 | 0.00 | 0.00 | 0.00 | 31 | 1013.5 |
| 20260506082835 | 58 | 145 | 2.0 | 6.0 | 0.00 | 0.00 | 0.00 | 31 | 1013.5 |
| 20260506082324 | 58 | 152 | 2.0 | 6.0 | 0.00 | 0.00 | 0.00 | 30 | 1013.5 |
| 20260506081825 | 58 | 146 | 2.0 | 5.0 | 0.00 | 0.00 | 0.00 | 35 | 1013.4 |
| 20260506081325 | 58 | 143 | 2.0 | 5.0 | 0.00 | 0.00 | 0.00 | 34 | 1013.5 |
| 20260506080826 | 57 | 96 | 3.0 | 10.0 | 0.00 | 0.00 | 0.00 | 38 | 1013.5 |
| 20260506080325 | 56 | 148 | 5.0 | 10.0 | 0.00 | 0.00 | 0.00 | 34 | 1013.5 |
| 20260506073333 | 54 | 161 | 4.0 | 9.0 | 0.00 | 0.00 | 0.00 | 41 | 1013.4 |
| 20260506072841 | 54 | 107 | 6.0 | 9.0 | 0.00 | 0.00 | 0.00 | 40 | 1013.4 |
| 20260506072347 | 53 | 192 | 3.0 | 9.0 | 0.00 | 0.00 | 0.00 | 40 | 1013.4 |
| 20260506071825 | 53 | 166 | 3.0 | 8.0 | 0.00 | 0.00 | 0.00 | 40 | 1013.4 |
| 20260506071354 | 53 | 167 | 4.0 | 8.0 | 0.00 | 0.00 | 0.00 | 41 | 1013.4 |
| 20260506070841 | 52 | 147 | 4.0 | 9.0 | 0.00 | 0.00 | 0.00 | 45 | 1013.4 |
| 20260506070329 | 52 | 156 | 4.0 | 8.0 | 0.00 | 0.00 | 0.00 | 43 | 1013.4 |
| 20260506062329 | 48 | 142 | 3.0 | 8.0 | 0.00 | 0.00 | 0.00 | 55 | 1013.4 |
| 20260506061829 | 48 | 120 | 2.0 | 8.0 | 0.00 | 0.00 | 0.00 | 58 | 1013.4 |
| 20260506061328 | 47 | 142 | 4.0 | 7.0 | 0.00 | 0.00 | 0.00 | 57 | 1013.4 |
| 20260506060829 | 46 | 157 | 3.0 | 10.0 | 0.00 | 0.00 | 0.00 | 62 | 1013.4 |
| 20260506060350 | 44 | 136 | 4.0 | 10.0 | 0.00 | 0.00 | 0.00 | 65 | 1013.4 |